User: anonymous   Login
Location: Caltech
(34.1382°N, 118.1253°W)
Time: 06:26:55
(UTC-08:00)
Language:

Cosmos 2219 - Orbit

View from above orbital plane
View from above orbital plane
View from above satellite
View from above satellite

Ground track
Ground track

The orbit data is extracted from the following two-line orbital elements,

1 22219U 92076A   15025.92650352 -.00000155  00000-0 -56961-4 0  7087
2 22219 071.0594 221.7449 0021110 282.3626 178.1929 14.13535900144813
Epoch (UTC): 25 January 2015 22:14:09
Eccentricity: 0.0021110
inclination: 71.0594°
perigee height: 832 km
apogee height: 862 km
right ascension of ascending node: 221.7449°
argument of perigee: 282.3626°
revolutions per day: 14.13535900
mean anomaly at epoch: 178.1929°
orbit number at epoch: 14481

The dashed part of the orbit path shows where the satellite is in the earth's shadow,  

DLR